FENGYUN 1C DEB, 31531

Orbit data source: Space-Track

FENGYUN 1C DEB, 31531 is space debris in SSO originally from a launch on Mon, 10 May 1999 UTC launched from the Taiyaun Space Center, China (TSC). Fengyun 1C debris stems from the Chinese weather satellite Fengyun-1C, which was intentionally destroyed by a Chinese anti-satellite missile in 2007. This event dramatically increased the amount of space debris, with thousands of trackable fragments posing hazards to satellites and human spaceflight. The Fengyun 1C debris cloud has become a focal point in discussions about space sustainability and the need for international regulations to prevent the creation of new debris.

Loading next visibility...
Identifier
31531, 1999-025BXW
Orbit
SSO
Country
Flag of CNCN / PRC
Related business
Manufacturer
Unknown
Mission
Spacecraft
Bus & Motor
Unknown
Mass
Unknown
Launch date (UTC)
1999-05-10 (27 years ago)
Launch vehicle
Unknown
Launch site
Taiyaun Space Center, China (TSC)
Object type
Payload
Rocket body
Debris
Shape & HBR
Unknown shape, 0.1 m
Radar Cross Section
Small (<0.1 m²)

Expand to show TLE details & history
Last TLE update: 2 days ago

TLE from 2 days ago
0 FENGYUN 1C DEB
1 31531U 99025BXW 26254.33840341  .00001538  00000-0  38269-3 0  9991
2 31531  98.3524 296.6419 0241102 172.6758 187.8057 14.37106483678485
Epoch: 2026-09-11T08:07Z
TLE epoch observation values (Epoch: 2026-09-11T08:07:18.054Z)
Latitude
0.00001°
Longitude
-175.54652°
Altitude
941.835 km
Speed
7.292 km/s
True Right ascension
19h 46m 34s
True Declination
0° 00' 00"
Sunlit
Object was in full shadow at epoch
Visualization orbit readout
Latitude
Unknown
Longitude
Unknown
Altitude
Unknown
Speed
Unknown
Apparent Right ascension
Unknown
Apparent Declination
Unknown
Sunlit
N/A
Visualization observer readout
Local Sidereal Time
16:05:20
Azimuth
Unknown
Elevation
Unknown
Doppler factor
Unknown
Orbital elements
Apogee altitude
937.418 km
Perigee altitude
592.964 km
Semi-major axis
7,143.328 km
Eccentricity
0.02411
Inclination
98.3524°
RAAN
296.6419°
Arg. of periapsis
172.6758°
True anomaly
187.44136°
Mean anomaly
187.8057°
Eccentric anomaly
187.62246°
Mean motion
3.59495 °/min
Orbital period
100.14 mins
BSTAR
0.00038269
Loading maneuver chart data...
Computing Atmospheric mass density...

Documentation

Showing up to 5 results
|